Location: Unspecified
(43.4354°N, 0.0000°E)
Time: 05:57:44
(UTC+00:00)

Tiros 1 despin weight - Pass Details

Date: 29 June 2019
Orbit: 594 x 643 km, 48.2° (Epoch: 12 October)

Event Time Altitude Azimuth Distance (km) Brightness Sun altitude
Rises 01:38:35 0° 294° (WNW) 2,843 ? -19.8°
Reaches altitude 10° 01:40:53 10° 293° (WNW) 1,933 ? -19.7°
Maximum altitude 01:45:18 82° 208° (SSW) 604 ? -19.3°
Drops below altitude 10° 01:49:42 10° 120° (ESE) 1,919 ? -19.0°
Sets 01:51:59 0° 119° (ESE) 2,819 ? -18.8°
